GW1838 Weather Reports


time (UTC)temp
F
wind
direction
speed
knots
gust
knots
rain 1hr
in
rain 24hr
in
rain mn
in
humidity
%
barometer
mb
20260504045805 52 237 7.8 13.0 0.00 0.00 0.00 61 1013.8
20260504045306 52 241 8.7 13.0 0.00 0.00 0.00 60 1013.8
20260504044305 52 241 5.2 10.4 0.00 0.00 0.00 61 1013.8
20260504041305 53 232 8.7 13.9 0.00 0.00 0.00 56 1013.6
20260504040836 53 238 7.8 13.9 0.00 0.00 0.00 57 1013.6
20260504040307 53 236 7.0 12.2 0.00 0.00 0.00 57 1013.6
20260504035806 53 235 6.1 13.9 0.00 0.00 0.00 55 1013.5
20260504035306 53 244 7.0 11.3 0.00 0.00 0.00 54 1013.4
20260504034805 53 248 7.8 13.0 0.00 0.00 0.00 56 1013.3
20260504034305 53 244 8.7 14.8 0.00 0.00 0.00 54 1013.3
20260504033805 53 238 7.8 13.9 0.00 0.00 0.00 54 1013.3
20260504033305 53 245 8.7 13.0 0.00 0.00 0.00 54 1013.2
20260504030805 53 245 6.1 13.0 0.00 0.00 0.00 55 1013.3
20260504025805 53 242 7.0 11.3 0.00 0.00 0.00 57 1013.2
20260504025306 53 244 7.0 10.4 0.00 0.00 0.00 56 1013.3
20260504023305 54 225 6.1 11.3 0.00 0.00 0.00 54 1013.2
20260504022306 54 247 7.0 10.4 0.00 0.00 0.00 53 1013.2
20260504021806 54 241 7.8 11.3 0.00 0.00 0.00 54 1013.2
20260504020806 54 249 5.2 10.4 0.00 0.00 0.00 53 1013.2
20260504015306 54 253 7.8 10.4 0.00 0.00 0.00 52 1013.2
20260504013806 55 242 6.1 10.4 0.00 0.00 0.00 53 1013.1
20260504012806 55 250 5.2 8.7 0.00 0.00 0.00 52 1013.0
20260504011306 56 239 6.1 10.4 0.00 0.00 0.00 48 1012.7
20260504010306 56 238 5.2 8.7 0.00 0.00 0.00 49 1012.5
20260504002306 56 237 4.3 7.0 0.00 0.00 0.00 47 1012.2
20260504001305 56 253 5.2 8.7 0.00 0.00 0.00 49 1012.1
20260503235806 56 253 4.3 8.7 0.00 0.00 0.00 47 1011.9
20260503234805 57 260 6.1 10.4 0.00 0.00 0.00 44 1011.8
20260503231806 58 258 6.1 10.4 0.00 0.00 0.00 41 1011.5
20260503231304 58 261 5.2 10.4 0.00 0.00 0.00 41 1011.5
20260503230805 59 254 7.8 12.2 0.00 0.00 0.00 36 1011.5
20260503230305 59 265 5.2 11.3 0.00 0.00 0.00 39 1011.5
20260503224805 59 279 4.3 10.4 0.00 0.00 0.00 41 1011.5
20260503223805 59 259 7.8 12.2 0.00 0.00 0.00 40 1011.4
20260503223305 59 259 8.7 12.2 0.00 0.00 0.00 40 1011.4
20260503221805 59 273 7.8 12.2 0.00 0.00 0.00 39 1011.3
20260503220805 59 272 7.8 13.0 0.00 0.00 0.00 37 1011.2
20260503215805 59 279 7.8 15.6 0.00 0.00 0.00 39 1011.2
20260503214805 59 287 6.1 12.2 0.00 0.00 0.00 40 1011.2
20260503213806 59 273 7.8 14.8 0.00 0.00 0.00 39 1011.0
20260503212805 58 273 8.7 15.6 0.00 0.00 0.00 38 1011.0
20260503211804 59 270 9.6 15.6 0.00 0.00 0.00 40 1011.0
20260503211306 59 282 5.2 12.2 0.00 0.00 0.00 38 1011.0
20260503205305 59 258 7.8 13.0 0.00 0.00 0.00 38 1011.0
20260503204805 59 306 6.1 13.9 0.00 0.00 0.00 37 1011.0
20260503204306 59 281 9.6 18.2 0.00 0.00 0.00 39 1010.9
20260503203805 59 286 5.2 10.4 0.00 0.00 0.00 38 1010.9
20260503203306 59 274 6.1 13.0 0.00 0.00 0.00 38 1011.0
20260503195805 57 262 8.7 13.9 0.00 0.00 0.00 38 1011.0
20260503194805 57 266 8.7 17.4 0.00 0.00 0.00 41 1011.2
20260503194305 57 280 8.7 17.4 0.00 0.00 0.00 41 1011.2
20260503193806 57 286 6.1 11.3 0.00 0.00 0.00 41 1011.3
20260503192807 57 278 5.2 12.2 0.00 0.00 0.00 42 1011.4
20260503192305 57 280 4.3 10.4 0.00 0.00 0.00 43 1011.4
20260503191304 56 266 5.2 12.2 0.00 0.00 0.00 43 1011.5
20260503190805 56 270 6.1 11.3 0.00 0.00 0.00 45 1011.5
20260503185805 56 274 8.7 13.0 0.00 0.00 0.00 43 1011.6
20260503185305 56 274 5.2 13.9 0.00 0.00 0.00 43 1011.6
20260503183306 56 263 6.1 12.2 0.00 0.00 0.00 43 1011.6
20260503182805 56 271 6.1 12.2 0.00 0.00 0.00 44 1011.8
20260503182306 56 260 5.2 11.3 0.00 0.00 0.00 45 1011.7
20260503181305 55 279 5.2 13.0 0.00 0.00 0.00 42 1011.8
20260503175305 55 272 5.2 11.3 0.00 0.00 0.00 43 1011.8
20260503174305 55 322 6.1 11.3 0.00 0.00 0.00 46 1011.7
20260503170305 53 251 4.3 11.3 0.00 0.00 0.00 48 1011.8
20260503131305 49 341 6.1 11.3 0.00 0.00 0.00 61 1011.9
20260503130304 48 304 7.8 13.0 0.00 0.00 0.00 61 1011.8
20260503110805 47 291 4.3 11.3 0.00 0.00 0.00 65 1011.0
20260503110304 47 301 2.6 7.8 0.00 0.00 0.00 65 1010.9
20260503090304 48 340 7.8 12.2 0.00 0.00 0.00 63 1009.1
20260503081305 49 327 5.2 11.3 0.00 0.00 0.00 63 1008.9
20260503072804 50 316 4.3 10.4 0.00 0.00 0.00 60 1008.9
20260503071805 50 339 4.3 10.4 0.00 0.00 0.00 61 1008.9
20260503070804 51 308 3.5 7.8 0.00 0.00 0.00 61 1008.8